Mecheria, Algeria

3:04 AM CET on November 16, 2019 (GMT +0100)
Mecheria

Weather History for DAAY - May, 2019

Change the Weather History Date:

Tuesday, May 21, 2019

  Actual Average Record
Temperature  
Mean Temperature 69 °F -  
Max Temperature 81 °F - - ()
Min Temperature 57 °F - - ()
Cooling Degree Days 4    
Growing Degree Days 19 (Base 50)    
Moisture  
Dew Point 54 °F    
Average Humidity 57    
Maximum Humidity 82    
Minimum Humidity 28    
Precipitation  
Precipitation 0.00 in - - ()
Sea Level Pressure  
Sea Level Pressure 30.07 in    
Wind  
Wind Speed 12 mph ()    
Max Wind Speed 23 mph    
Max Gust Speed -    
Visibility 5.8 miles    
Events Thunderstorm    
T = Trace of Precipitation, MM = Missing Value Source: Averaged Metar Reports

Daily Weather History Graph

Daily Weather History Graph

Search for Another Location

Airport or City:

Astronomy

May. 21, 2019 Rise Set
Actual Time 5:56 AM CET 7:58 PM CET
Civil Twilight 5:29 AM CET 8:26 PM CET
Nautical Twilight 4:55 AM CET 9:00 PM CET
Astronomical Twilight 4:19 AM CET 9:36 PM CET
Moon 10:39 PM CET (5/21) 8:02 AM CET (5/21)
Length of Visible Light 14h 57m
Length of Day
14h 01m
Waning Gibbous, 93% of the Moon is Illuminated
May 21
Waning Gibbous
May 26
Last Quarter
Jun 3
New
Jun 10
First Quarter
Jun 17
Full

Hourly Weather History & Observations

Time (CET) Temp. Heat Index Dew Point Humidity Pressure Visibility Wind Dir Wind Speed Gust Speed Precip Events Conditions
12:00 AM 64.4 °F - 53.6 °F 68% 30.06 in 6.2 mi North 16.1 mph - N/A   Partly Cloudy
1:00 AM 62.6 °F - 53.6 °F 72% 30.06 in 6.2 mi North 16.1 mph - N/A   Scattered Clouds
2:00 AM 60.8 °F - 53.6 °F 77% 30.06 in 6.2 mi North 18.4 mph - N/A   Scattered Clouds
3:00 AM 59.0 °F - 53.6 °F 82% 30.06 in 6.2 mi North 13.8 mph - N/A   Scattered Clouds
5:00 AM 59.0 °F - 51.8 °F 77% 30.06 in 6.2 mi North 11.5 mph - N/A   Mostly Cloudy
6:00 AM 59.0 °F - 51.8 °F 77% 30.06 in 6.2 mi North 9.2 mph - N/A   Mostly Cloudy
7:00 AM 59 °F - 52 °F 72%  in 6 mi North 9.2 mph - -   Scattered Clouds
7:00 AM 59.0 °F - 51.8 °F 77% 30.06 in - North 9.2 mph - N/A   Clear
8:00 AM 62.6 °F - 55.4 °F 77% 30.09 in - North 11.5 mph - N/A   Clear
9:00 AM 64.4 °F - 55.4 °F 73% 30.09 in - North 13.8 mph - N/A   Clear
10:00 AM 68.0 °F - 55.4 °F 64% 30.09 in - North 11.5 mph - N/A   Clear
12:00 PM 71.6 °F - 55.4 °F 57% 30.09 in - North 9.2 mph - N/A   Clear
1:00 PM 75 °F - 56 °F 41%  in 6 mi NNE 9.2 mph - -   Clear
1:00 PM 75.2 °F - 55.4 °F 50% 30.09 in - NNE 9.2 mph - N/A   Clear
2:00 PM 77.0 °F - 55.4 °F 47% 30.09 in - NNE 13.8 mph - N/A   Clear
3:00 PM 80.6 °F 80.8 °F 57.2 °F 45% 30.06 in - WNW 6.9 mph - N/A   Clear
4:00 PM 81 °F - 55 °F 30%  in 6 mi WNW 11.5 mph - -   Scattered Clouds
4:00 PM 80.6 °F 80.5 °F 55.4 °F 42% 30.06 in 6.2 mi WNW 11.5 mph - N/A   Partly Cloudy
5:00 PM 80.6 °F 80.3 °F 53.6 °F 39% 30.04 in 6.2 mi WNW 13.8 mph - N/A   Partly Cloudy
6:00 PM 78.8 °F - 51.8 °F 39% 30.04 in 6.2 mi North 13.8 mph - N/A   Partly Cloudy
7:00 PM 78 °F - 51 °F 28%  in 6 mi North 16.1 mph - -   Scattered Clouds
7:00 PM 78.8 °F - 51.8 °F 39% 30.04 in 6.2 mi North 16.1 mph - N/A   Partly Cloudy
8:00 PM 75.2 °F - 51.8 °F 44% 30.04 in 5.0 mi North 16.1 mph - N/A   Scattered Clouds
9:00 PM 71.6 °F - 50.0 °F 46% 30.06 in 5.0 mi North 23.0 mph - N/A Thunderstorm Light Thunderstorm
9:50 PM 68.0 °F - 53.6 °F 60% 30.12 in 5.0 mi North 20.7 mph - N/A   Partly Cloudy
10:00 PM 68.0 °F - 51.8 °F 56% 30.12 in 5.0 mi North 20.7 mph - N/A   Partly Cloudy
11:00 PM 64.4 °F - 51.8 °F 64% 30.12 in 5.0 mi North 20.7 mph - N/A   Partly Cloudy